{"data":{"norad_id":41185,"epoch":"2026-05-25T00:56:14.618112Z","epoch_age_seconds":75135,"freshness":"FRESH","line1":"1 41185U 15081G   26145.03905808  .00000321  00000+0  10421-3 0  9991","line2":"2 41185  47.0022  20.0696 0001021 101.4158 258.6843 14.58827954555557","mean_motion":14.58827954,"eccentricity":0.0001021,"inclination_deg":47.0022,"raan_deg":20.0696,"arg_perigee_deg":101.4158,"mean_anomaly_deg":258.6843,"bstar":0.00010421,"rev_number":55555,"period_min":98.709378035403,"perigee_km":696.23858465311,"apogee_km":697.68331965494,"semimajor_km":7075.097952154,"source":"CELESTRAK","updated_at":"2026-05-25T13:38:22.866436Z"}}